• In Uzbekistan
  • List of Countries
  • For 7 days
  • Water Temperature
  • Satellite Maps
  • Weather Map
  • Weather Widgets
  • user-avatar
    Login

    Hourly Weather Drzewociny

    Today, 24 March, Sunday

    Time Temperature Precipitation Wind Pressure Humidity
    00:00 +8°C° 0 mm 4 mps 751 mmHg 86%
    01:00 +7°C° 0 mm 3 mps 751 mmHg 86%
    02:00 +7°C° 0 mm 3 mps 752 mmHg 86%
    03:00 +5°C° 0 mm 3 mps 752 mmHg 85%
    04:00 +4°C° 0 mm 3 mps 752 mmHg 85%
    05:00 +4°C° 0 mm 3 mps 752 mmHg 83%
    06:00 +4°C° 0 mm 3 mps 752 mmHg 82%
    07:00 +4°C° 0 mm 3 mps 752 mmHg 79%
    08:00 +5°C° 0 mm 3 mps 752 mmHg 68%
    09:00 +7°C° 0 mm 3 mps 752 mmHg 57%
    10:00 +8°C° 0 mm 3 mps 752 mmHg 47%
    11:00 +9°C° 0 mm 3 mps 751 mmHg 43%
    12:00 +10°C° 0 mm 3 mps 751 mmHg 39%
    13:00 +11°C° 0 mm 3 mps 750 mmHg 34%
    14:00 +12°C° 0 mm 2 mps 750 mmHg 34%
    15:00 +12°C° 0 mm 2 mps 749 mmHg 34%
    16:00 +12°C° 0 mm 2 mps 748 mmHg 34%
    17:00 +10°C° 0 mm 2 mps 748 mmHg 38%
    18:00 +9°C° 0 mm 2 mps 748 mmHg 42%
    19:00 +8°C° 0 mm 1 mps 747 mmHg 46%
    20:00 +8°C° 0 mm 1 mps 747 mmHg 48%
    21:00 +7°C° 0 mm 1 mps 747 mmHg 50%
    22:00 +7°C° 0 mm 1 mps 747 mmHg 52%
    23:00 +7°C° 0 mm 1 mps 746 mmHg 53%

    Tomorrow, 25 March, Monday

    Time Temperature Precipitation Wind Pressure Humidity
    00:00 +7°C° 0 mm 1 mps 746 mmHg 53%
    01:00 +6°C° 0 mm 1 mps 745 mmHg 54%
    02:00 +6°C° 0 mm 1 mps 745 mmHg 56%
    03:00 +5°C° 0 mm 1 mps 744 mmHg 58%
    04:00 +5°C° 0 mm 1 mps 743 mmHg 60%
    05:00 +4°C° 0 mm 2 mps 743 mmHg 61%
    06:00 +5°C° 0 mm 2 mps 743 mmHg 62%
    07:00 +6°C° 0 mm 2 mps 743 mmHg 63%
    08:00 +7°C° 0 mm 3 mps 742 mmHg 58%
    09:00 +7°C° 0 mm 4 mps 742 mmHg 52%
    10:00 +8°C° 0 mm 5 mps 742 mmHg 47%
    11:00 +8°C° 0.2 mm 5 mps 741 mmHg 47%
    12:00 +8°C° 0.2 mm 5 mps 741 mmHg 47%
    13:00 +8°C° 0.2 mm 6 mps 741 mmHg 47%
    14:00 +7°C° 0.3 mm 6 mps 741 mmHg 52%
    15:00 +7°C° 0.3 mm 6 mps 741 mmHg 57%
    16:00 +5°C° 0.3 mm 6 mps 741 mmHg 61%
    17:00 +4°C° 0.1 mm 6 mps 742 mmHg 65%
    18:00 +5°C° 0.1 mm 5 mps 742 mmHg 68%
    19:00 +4°C° 0.1 mm 4 mps 743 mmHg 71%
    20:00 +2°C° 0 mm 5 mps 744 mmHg 74%
    21:00 +2°C° 0 mm 5 mps 744 mmHg 76%
    22:00 +2°C° 0 mm 5 mps 745 mmHg 79%
    23:00 +1°C° 0 mm 4 mps 746 mmHg 82%

    Day after tomorrow, 26 March, Tuesday

    Time Temperature Precipitation Wind Pressure Humidity
    00:00 +1°C° 0 mm 4 mps 746 mmHg 85%
    01:00 +1°C° 0 mm 3 mps 747 mmHg 88%
    02:00 +1°C° 0 mm 3 mps 747 mmHg 90%
    03:00 0°C° 0 mm 3 mps 748 mmHg 93%
    04:00 0°C° 0 mm 3 mps 748 mmHg 95%
    05:00 0°C° 0 mm 3 mps 748 mmHg 93%
    06:00 -1°C° 0 mm 4 mps 749 mmHg 91%
    07:00 -1°C° 0 mm 4 mps 749 mmHg 89%
    08:00 +1°C° 0 mm 5 mps 749 mmHg 80%
    09:00 +3°C° 0 mm 6 mps 749 mmHg 71%
    10:00 +4°C° 0 mm 7 mps 749 mmHg 63%
    11:00 +5°C° 0 mm 7 mps 748 mmHg 60%
    12:00 +6°C° 0 mm 8 mps 748 mmHg 57%
    13:00 +6°C° 0 mm 9 mps 747 mmHg 54%
    14:00 +6°C° 0.1 mm 10 mps 747 mmHg 56%
    15:00 +5°C° 0.1 mm 10 mps 747 mmHg 57%
    16:00 +3°C° 0.1 mm 10 mps 747 mmHg 59%
    17:00 +3°C° 0.1 mm 9 mps 748 mmHg 61%
    18:00 +3°C° 0.1 mm 7 mps 749 mmHg 63%
    19:00 +3°C° 0.1 mm 6 mps 749 mmHg 65%
    20:00 +2°C° 0 mm 5 mps 750 mmHg 67%
    21:00 +3°C° 0 mm 4 mps 750 mmHg 69%
    22:00 +2°C° 0 mm 3 mps 751 mmHg 71%
    23:00 +2°C° 0 mm 2 mps 751 mmHg 71%

    27 March, Wednesday

    Time Temperature Precipitation Wind Pressure Humidity
    00:00 +2°C° 0 mm 1 mps 752 mmHg 71%
    01:00 +1°C° 0 mm 1 mps 752 mmHg 70%
    02:00 +1°C° 0 mm 1 mps 752 mmHg 70%
    03:00 +1°C° 0 mm 1 mps 752 mmHg 69%
    04:00 +1°C° 0 mm 1 mps 752 mmHg 68%
    05:00 +1°C° 0 mm 1 mps 753 mmHg 69%
    06:00 +2°C° 0 mm 1 mps 753 mmHg 70%
    07:00 +2°C° 0 mm 2 mps 753 mmHg 71%
    08:00 +3°C° 0 mm 2 mps 753 mmHg 64%
    09:00 +4°C° 0 mm 3 mps 753 mmHg 58%
    10:00 +6°C° 0 mm 4 mps 753 mmHg 51%
    11:00 +7°C° 0 mm 4 mps 753 mmHg 49%
    12:00 +7°C° 0 mm 4 mps 753 mmHg 47%
    13:00 +8°C° 0 mm 4 mps 753 mmHg 45%
    14:00 +8°C° 0.1 mm 4 mps 753 mmHg 52%
    15:00 +8°C° 0.1 mm 4 mps 753 mmHg 58%
    16:00 +7°C° 0.1 mm 4 mps 752 mmHg 64%
    17:00 +8°C° 0.2 mm 3 mps 753 mmHg 68%
    18:00 +7°C° 0.2 mm 3 mps 753 mmHg 72%
    19:00 +7°C° 0.2 mm 2 mps 753 mmHg 76%
    20:00 +6°C° 0.1 mm 2 mps 753 mmHg 79%
    21:00 +6°C° 0.1 mm 2 mps 753 mmHg 81%
    22:00 +6°C° 0.1 mm 2 mps 753 mmHg 84%
    23:00 +6°C° 0 mm 2 mps 754 mmHg 84%

    28 March, Thursday

    Time Temperature Precipitation Wind Pressure Humidity
    00:00 +6°C° 0 mm 2 mps 754 mmHg 85%
    01:00 +6°C° 0 mm 2 mps 754 mmHg 85%
    02:00 +5°C° 0 mm 2 mps 754 mmHg 87%
    03:00 +5°C° 0 mm 2 mps 754 mmHg 89%
    04:00 +4°C° 0 mm 2 mps 754 mmHg 91%
    05:00 +5°C° 0 mm 2 mps 754 mmHg 91%
    06:00 +5°C° 0 mm 2 mps 755 mmHg 90%
    07:00 +5°C° 0 mm 2 mps 755 mmHg 89%
    08:00 +7°C° 0.1 mm 1 mps 755 mmHg 87%
    09:00 +7°C° 0.1 mm 1 mps 755 mmHg 85%
    10:00 +8°C° 0.1 mm 1 mps 756 mmHg 83%
    11:00 +9°C° 0 mm 1 mps 756 mmHg 78%
    12:00 +10°C° 0 mm 1 mps 756 mmHg 73%
    13:00 +11°C° 0 mm 1 mps 756 mmHg 68%
    14:00 +11°C° 0 mm 1 mps 756 mmHg 67%
    15:00 +11°C° 0 mm 1 mps 756 mmHg 65%
    16:00 +10°C° 0 mm 0 mps 756 mmHg 64%
    17:00 +9°C° 0 mm 0 mps 756 mmHg 68%
    18:00 +10°C° 0 mm 1 mps 756 mmHg 72%
    19:00 +9°C° 0 mm 1 mps 756 mmHg 76%
    20:00 +8°C° 0 mm 1 mps 757 mmHg 78%
    21:00 +8°C° 0 mm 1 mps 757 mmHg 81%
    22:00 +7°C° 0 mm 1 mps 757 mmHg 83%
    23:00 +7°C° 0 mm 1 mps 757 mmHg 84%

    29 March, Friday

    Time Temperature Precipitation Wind Pressure Humidity
    00:00 +6°C° 0 mm 1 mps 758 mmHg 86%
    01:00 +6°C° 0 mm 1 mps 758 mmHg 87%
    02:00 +6°C° 0 mm 1 mps 758 mmHg 88%
    03:00 +5°C° 0 mm 1 mps 757 mmHg 88%
    04:00 +5°C° 0 mm 1 mps 757 mmHg 89%
    05:00 +6°C° 0 mm 1 mps 758 mmHg 88%
    06:00 +6°C° 0 mm 1 mps 758 mmHg 87%
    07:00 +7°C° 0 mm 1 mps 758 mmHg 85%
    08:00 +8°C° 0 mm 1 mps 758 mmHg 79%
    09:00 +9°C° 0 mm 2 mps 757 mmHg 72%
    10:00 +12°C° 0 mm 2 mps 757 mmHg 65%
    11:00 +12°C° 0 mm 2 mps 757 mmHg 60%
    12:00 +12°C° 0 mm 3 mps 756 mmHg 54%
    13:00 +13°C° 0 mm 3 mps 756 mmHg 49%
    14:00 +13°C° 0 mm 3 mps 755 mmHg 49%
    15:00 +13°C° 0 mm 3 mps 755 mmHg 49%
    16:00 +13°C° 0 mm 3 mps 755 mmHg 49%
    17:00 +12°C° 0 mm 3 mps 755 mmHg 54%
    18:00 +10°C° 0 mm 2 mps 755 mmHg 59%
    19:00 +9°C° 0 mm 2 mps 754 mmHg 64%
    20:00 +9°C° 0 mm 2 mps 754 mmHg 67%
    21:00 +8°C° 0 mm 2 mps 754 mmHg 69%
    22:00 +7°C° 0 mm 2 mps 754 mmHg 72%
    23:00 +7°C° 0 mm 2 mps 754 mmHg 73%
    Show more